Theta_e
318 317 317 318 317 318 319 320 319 319 320 321 322 322 322 323 323 324 324 324 324 325 325 325 326 327 317 310 312 312 336 333 323 319 315 313 308 308 304 305 305 303 304 307 306 306 305
317 317 317 317 317 316 318 319 319 319 319 320 320 320 321 322 322 323 324 324 324 324 324 325 325 327 313 305 310 312 312 312 316 320 313 313 307 308 304 304 303 305 305 304 305 304 304
317 317 316 317 316 316 318 318 318 318 318 318 319 320 321 321 322 323 323 323 323 323 323 324 324 321 313 310 309 308 311 309 313 317 315 314 312 306 305 303 306 304 299 300 301 302 302
317 317 317 317 316 315 316 317 318 317 317 317 318 319 320 321 322 322 322 322 323 323 323 324 325 317 307 314 308 309 311 310 314 315 316 315 314 309 305 305 301 297 296 291 297 301 302
316 316 316 316 316 316 315 316 317 317 317 317 317 318 319 321 321 322 322 322 322 322 323 324 317 311 304 315 306 308 310 309 311 311 313 313 313 306 303 296 292 293 287 290 294 302 301
316 316 317 317 316 316 315 315 316 316 317 316 317 318 318 321 321 321 321 321 320 320 320 318 317 305 307 303 307 309 308 311 308 308 309 307 303 298 297 293 286 288 288 291 291 298 299
318 317 317 316 316 315 316 316 315 316 317 318 318 318 320 320 320 320 315 309 305 305 309 303 305 303 303 306 309 306 310 309 307 303 297 302 296 291 293 297 295 294 291 291 293 300 297
319 316 316 316 316 315 315 316 316 316 317 318 318 319 320 320 320 319 312 307 307 305 299 308 307 305 306 306 303 305 309 301 301 296 299 295 292 296 301 300 298 295 292 291 296 300 296
318 317 316 316 315 316 316 316 317 318 318 318 319 320 320 321 319 312 307 310 313 312 297 303 306 303 304 306 303 303 306 303 298 296 295 292 298 302 300 298 297 295 292 291 292 296 295
317 316 316 315 315 316 316 316 318 318 318 319 320 320 320 320 307 307 304 312 313 311 291 296 301 304 304 308 302 308 306 304 300 295 297 295 300 300 297 296 296 290 298 297 296 291 286
317 316 315 314 315 316 317 317 318 318 319 319 319 319 319 317 309 308 312 313 312 306 283 298 301 309 304 303 304 305 307 304 298 298 296 293 296 296 296 297 298 294 299 295 294 288 286
316 316 315 314 315 316 318 318 318 318 319 319 318 318 318 313 308 310 313 312 307 290 285 296 302 299 298 301 302 305 302 303 302 297 296 295 300 298 297 299 298 299 294 292 290 287 281
316 315 314 314 315 317 318 318 318 318 319 318 317 318 314 315 307 312 311 305 287 286 298 295 296 299 297 296 298 299 297 293 291 288 287 293 295 296 298 293 296 294 287 280 280 281 281
316 315 314 314 314 318 318 318 318 319 319 318 315 316 314 313 310 309 306 297 285 294 295 301 300 298 294 298 296 297 295 290 291 290 287 287 286 293 296 293 291 291 288 282 279 279 282
317 316 315 314 315 317 318 318 319 319 318 316 314 305 306 307 311 308 300 289 289 293 298 298 298 293 293 296 296 294 291 289 289 288 286 284 287 293 294 293 293 289 285 288 283 280 278
317 316 315 315 315 315 316 318 318 318 317 314 302 301 302 306 307 304 296 293 291 297 298 299 292 295 291 292 291 290 290 292 291 291 289 285 282 290 292 293 292 288 291 284 282 276 276
317 316 315 315 314 314 315 316 319 318 316 313 299 297 303 304 304 299 289 290 294 298 299 296 294 293 293 292 291 289 290 292 294 291 289 286 284 283 287 286 286 286 284 284 284 281 277
317 317 315 314 314 313 314 315 317 317 314 306 299 292 300 303 294 290 291 293 298 296 297 296 295 294 292 292 289 289 290 291 293 292 287 286 284 281 283 287 289 288 285 284 280 279 278
316 317 315 315 314 313 313 314 315 314 311 302 297 292 298 301 289 287 290 293 295 295 294 294 293 294 292 290 286 290 291 294 293 292 288 287 281 278 281 286 288 283 285 286 284 281 278
315 316 315 315 314 313 313 312 313 314 312 300 293 290 293 294 292 290 290 290 290 293 294 292 291 292 290 288 289 288 289 293 293 294 296 291 283 282 280 282 285 283 286 286 283 275 278
314 316 315 315 314 313 312 312 310 314 311 300 293 292 291 287 290 289 290 292 289 288 291 290 288 290 288 285 286 287 290 289 291 296 290 287 281 283 285 287 287 286 286 286 283 282 280
314 315 315 315 315 314 313 311 311 309 307 297 293 291 289 288 289 289 288 289 289 289 288 288 287 290 287 286 286 286 290 288 287 289 287 287 281 283 282 287 286 285 286 287 285 285 284
315 314 315 314 314 314 315 313 311 310 306 295 295 293 293 291 287 288 287 289 290 290 289 291 290 288 287 288 289 288 288 288 290 288 287 286 283 280 278 284 284 279 285 286 286 286 285
315 314 314 314 313 313 314 315 313 311 307 302 297 296 294 291 291 291 292 292 290 290 289 290 291 289 291 292 291 289 289 289 289 288 289 285 283 281 275 280 274 283 288 288 287 288 288
316 315 313 314 313 312 313 313 313 312 310 300 298 299 296 290 291 292 292 290 290 290 289 290 291 291 292 290 286 284 284 285 286 287 286 286 283 278 274 273 280 284 285 285 284 284 289
317 315 313 313 312 312 313 313 313 312 310 301 299 299 299 292 290 293 290 289 287 286 288 289 291 291 291 288 286 279 280 283 281 283 287 286 283 280 276 271 271 282 287 289 288 278 289
318 315 313 313 312 312 311 312 312 312 311 303 299 301 298 291 291 292 290 290 291 289 287 286 287 287 290 285 282 281 282 287 281 281 279 280 278 276 275 272 278 287 290 290 278 279 289
318 316 314 312 312 311 310 310 311 312 312 302 299 301 299 291 291 295 296 292 292 290 288 288 288 287 285 282 281 282 279 285 282 283 281 280 276 275 275 273 275 291 287 284 286 288 289
318 317 314 312 312 311 310 309 310 312 312 305 295 300 301 295 292 296 297 296 295 294 291 289 290 288 288 284 284 284 283 282 283 278 285 281 284 281 282 281 289 289 288 291 290 289 288
Wind_Speed
9 9 9 9 8 9 9 8 9 7 6 3 2 1 1 3 4 5 7 7 8 8 10 9 10 11 4 1 8 3 6 7 2 3 2 3 4 3 5 3 3 3 4 4 3 5 5
9 10 10 9 9 8 9 11 7 8 8 5 3 2 3 5 6 6 8 8 9 9 9 9 10 11 2 2 1 4 4 2 3 3 4 3 5 3 4 2 4 3 3 3 3 3 2
10 10 8 10 8 8 8 10 8 7 7 7 7 6 6 7 7 7 9 9 9 9 8 10 8 5 2 8 2 4 2 3 3 5 4 3 2 1 2 3 1 6 4 4 2 4 2
10 10 10 10 9 8 8 9 8 6 7 11 9 10 9 8 9 9 10 10 9 9 9 10 7 6 5 4 2 3 1 1 1 1 3 4 2 1 3 1 5 4 5 0 4 7 2
11 10 10 10 10 9 8 9 7 7 6 8 10 11 11 10 9 10 10 10 10 9 9 6 3 4 5 3 2 3 3 3 2 1 2 2 1 3 4 5 4 5 3 5 7 9 5
11 11 11 10 10 9 8 8 7 7 8 9 10 10 11 9 8 10 10 10 7 8 4 2 8 0 3 5 3 2 1 2 1 1 3 3 5 3 3 4 5 5 4 4 4 6 6
12 11 11 11 10 9 8 8 7 7 8 8 10 10 8 8 9 7 5 3 3 1 1 8 5 2 3 1 2 1 1 1 1 4 3 1 4 4 7 6 4 3 2 4 5 1 5
12 11 11 10 9 8 8 8 8 8 8 8 9 9 8 8 6 4 2 3 6 3 2 7 4 0 2 4 3 2 2 2 3 3 2 6 2 5 4 4 4 2 3 4 3 2 4
11 11 11 10 8 8 7 7 7 8 8 8 8 8 7 5 2 2 4 7 6 2 4 2 1 2 2 2 2 1 2 0 2 2 3 5 2 3 3 2 2 0 3 2 4 4 4
11 11 10 9 8 7 7 8 8 8 8 7 6 5 3 1 1 3 5 6 5 2 5 2 0 2 1 3 3 1 1 2 2 3 3 3 1 3 2 2 3 2 3 1 1 3 4
11 11 9 7 7 6 6 7 8 8 8 7 6 5 5 7 4 3 4 7 4 4 5 3 2 1 1 3 5 3 2 4 2 1 6 5 4 2 2 2 1 5 2 1 1 2 3
11 10 8 6 7 5 6 6 7 8 8 8 7 6 6 3 2 7 7 6 4 7 2 3 3 3 3 1 0 2 2 3 2 3 3 2 1 1 3 2 2 3 3 7 5 3 2
11 9 7 6 6 5 5 5 7 7 8 8 7 9 6 1 3 4 4 4 6 4 1 4 4 4 2 3 1 2 2 3 2 3 1 2 1 1 1 2 4 5 6 4 4 2 7
11 9 7 6 6 6 4 5 6 7 7 6 7 7 5 5 4 5 3 6 2 2 3 2 4 4 4 4 2 2 3 2 5 3 2 3 5 2 2 2 4 3 6 6 5 3 4
11 9 7 5 5 6 5 5 5 5 6 6 5 1 3 5 5 1 6 4 3 1 3 4 3 3 2 1 5 2 2 3 1 2 6 4 4 1 3 2 3 1 2 3 2 2 2
10 9 8 6 4 3 4 4 5 6 7 7 2 1 4 1 3 5 6 3 3 2 3 2 3 3 5 4 2 3 4 2 1 1 2 2 2 1 1 2 2 2 2 3 3 2 4
10 9 8 8 5 3 3 4 4 7 8 7 3 2 4 2 4 6 3 4 2 2 2 2 2 2 3 5 4 3 2 2 4 1 2 1 3 2 2 3 5 2 2 2 3 5 5
9 9 9 8 6 3 4 4 4 7 9 5 3 3 3 3 4 1 3 1 0 2 3 3 2 2 2 1 3 3 4 1 3 1 2 2 4 3 5 3 1 3 4 5 5 4 1
8 8 8 9 7 3 2 4 6 9 7 4 3 2 3 5 3 1 2 3 3 1 2 2 2 3 2 2 3 3 3 1 2 2 3 2 1 2 5 5 2 3 3 4 5 3 5
5 7 7 8 8 5 1 4 7 9 9 4 3 2 5 5 1 7 5 3 2 1 1 2 2 1 3 2 4 4 2 1 1 2 3 2 2 5 7 4 2 4 3 4 5 4 3
4 4 6 8 9 8 5 2 7 10 9 5 2 4 4 3 3 4 4 5 4 3 1 2 2 2 3 3 2 3 2 1 1 1 2 3 3 2 4 5 4 6 7 6 6 5 6
5 3 3 6 9 10 8 3 4 7 8 4 4 3 3 2 1 6 1 7 6 3 4 3 2 4 2 4 5 7 6 4 3 1 3 2 1 2 3 3 5 5 6 8 7 4 6
7 6 1 3 7 9 8 6 4 7 3 3 1 2 5 3 2 5 4 5 7 8 1 1 2 5 3 4 4 4 5 5 6 6 4 3 3 3 5 5 6 5 2 5 2 2 1
11 7 4 1 4 7 8 7 7 5 7 3 2 3 4 1 2 4 5 3 5 2 7 2 4 4 2 4 4 4 7 7 7 6 2 5 4 2 3 5 1 5 1 4 9 2 4
13 10 6 2 1 4 6 7 7 7 7 4 1 3 3 1 1 4 5 6 5 5 4 4 4 1 3 4 4 4 5 3 3 6 5 3 4 3 3 2 7 0 0 2 2 5 2
15 12 9 5 2 1 4 6 6 6 7 5 2 3 4 6 3 1 4 3 4 3 3 3 3 2 5 3 3 4 5 3 3 2 5 5 6 5 2 4 6 5 3 2 3 4 2
17 14 11 8 4 2 3 6 6 6 6 5 2 2 4 5 2 2 3 5 5 4 4 2 2 2 4 2 3 3 3 2 2 5 4 2 3 5 3 3 9 8 5 4 2 8 2
18 16 14 11 7 4 3 4 4 4 5 5 2 0 4 4 2 4 4 3 3 3 5 5 5 2 3 3 4 4 3 3 1 4 6 7 7 5 3 2 9 6 3 6 5 0 2
19 17 15 13 10 6 3 2 3 3 3 5 3 1 2 6 3 2 4 3 3 1 6 2 4 4 6 5 1 3 0 2 4 3 2 3 8 7 10 9 4 3 3 4 3 1 4
Wind_Direction
316 311 309 310 310 308 310 307 249 247 269 284 191 196 254 273 276 288 290 292 294 297 296 306 307 317 304 272 253 220 216 221 270 348 4 74 320 247 127 165 93 126 177 125 126 95 83
315 310 315 312 307 307 307 297 261 247 246 245 260 281 290 282 283 290 288 288 289 289 294 303 305 315 218 262 240 191 218 142 100 76 8 73 252 271 109 110 136 163 133 138 145 124 99
313 309 308 308 308 303 300 292 289 252 243 235 257 259 274 279 285 285 283 286 284 285 300 296 305 288 105 239 273 228 255 185 159 151 168 244 254 61 93 106 134 120 92 354 218 189 186
312 314 311 309 309 301 296 291 293 279 257 254 256 260 266 275 279 282 282 281 286 290 299 287 298 259 238 267 300 291 177 323 246 174 136 230 10 355 89 146 39 95 60 16 268 153 230
315 311 313 309 305 300 291 287 279 271 259 247 247 254 259 267 269 278 283 288 285 295 275 275 301 223 273 286 198 226 158 160 144 18 339 313 34 95 44 90 31 360 213 214 309 192 143
317 311 308 304 304 300 289 276 271 262 248 244 245 248 253 268 281 283 289 280 294 312 222 236 262 153 279 214 179 188 317 120 118 114 25 59 51 74 44 92 210 205 218 230 235 218 190
311 309 308 303 299 292 282 272 259 252 256 259 247 253 263 269 269 283 315 42 79 121 238 198 181 232 157 161 84 325 191 93 83 57 137 34 92 192 210 202 172 182 210 240 263 261 157
317 318 308 302 295 284 274 268 255 249 249 255 259 262 261 255 258 283 22 230 225 170 183 227 138 176 163 182 99 353 22 117 139 145 136 30 210 219 198 149 166 173 237 279 271 275 175
325 316 309 300 290 287 277 267 257 249 245 244 247 251 260 266 309 26 222 237 304 42 114 46 163 131 206 103 97 329 46 264 145 120 158 151 241 169 168 167 166 77 204 221 226 345 303
331 321 311 298 289 285 274 262 261 245 238 240 257 260 255 222 323 256 236 270 256 119 80 327 46 281 138 113 49 328 20 99 34 175 137 199 222 158 153 228 125 247 187 146 45 46 256
333 327 315 296 292 282 275 268 262 248 237 230 228 227 208 183 302 239 299 316 309 56 101 164 162 211 124 105 151 0 353 36 105 31 89 243 161 159 190 217 209 227 123 127 116 94 8
337 335 320 295 294 286 280 267 249 246 234 219 216 201 171 197 224 247 311 317 38 47 209 210 134 163 108 118 164 86 48 44 95 55 12 214 317 77 169 92 71 147 75 35 51 80 0
341 339 328 302 297 291 277 250 235 233 235 227 204 188 177 245 239 312 307 43 46 117 61 176 174 155 144 163 139 118 120 32 117 106 308 34 257 335 136 129 10 73 58 327 346 2 226
341 341 335 310 293 297 258 224 224 214 209 217 204 179 234 232 268 332 46 50 104 172 169 192 122 116 164 146 171 144 101 121 35 94 106 162 300 174 7 154 178 170 147 162 238 219 275
338 340 338 319 294 300 267 206 207 204 176 149 144 301 280 262 212 99 70 68 198 276 316 125 62 124 196 80 134 124 84 156 108 8 163 161 273 233 61 40 107 178 174 181 107 13 50
336 339 341 339 315 293 286 240 187 166 157 144 95 13 261 231 118 64 74 222 200 10 350 45 175 162 182 194 126 136 169 318 159 61 83 207 325 212 39 42 46 150 186 58 8 246 263
336 340 348 344 334 293 244 255 211 165 158 150 61 61 266 81 66 51 153 216 152 46 37 48 164 115 155 168 171 165 174 352 13 50 73 60 110 297 42 190 188 45 298 76 122 146 184
338 341 348 355 346 311 252 204 200 180 154 111 118 72 293 59 59 27 140 138 343 25 4 18 89 81 119 114 82 102 148 36 348 303 110 40 136 232 241 277 244 185 194 145 125 239 166
332 344 352 358 7 349 245 212 183 172 182 127 113 197 327 89 138 297 263 63 64 51 31 43 90 55 49 93 108 101 111 307 28 73 151 159 32 16 347 356 323 221 213 137 110 85 209
324 342 356 8 14 19 12 181 180 176 184 88 92 73 332 44 138 143 162 166 121 28 78 59 125 58 81 83 39 146 125 176 31 84 122 93 134 168 190 199 180 276 243 176 137 118 203
288 340 10 21 23 30 37 153 164 170 175 94 70 238 187 209 273 181 135 146 140 170 38 41 41 168 161 133 99 134 120 84 30 70 95 111 195 242 253 252 252 239 246 257 215 203 184
250 303 18 45 36 30 39 75 165 168 152 83 150 139 9 184 87 125 102 195 154 148 140 215 190 181 147 156 181 189 138 187 189 121 152 26 214 29 286 13 7 279 290 277 237 212 245
223 259 298 57 57 43 32 62 92 184 173 124 258 354 108 288 91 110 209 164 186 132 346 122 183 116 109 163 115 92 94 94 142 144 164 115 114 70 270 347 331 327 266 266 245 99 249
221 228 243 7 65 62 43 49 69 94 180 130 197 106 91 257 122 190 165 95 137 164 142 55 46 104 146 99 96 60 53 80 82 46 94 132 106 110 248 0 4 233 328 51 111 111 91
214 207 214 204 62 63 63 50 65 76 137 106 145 117 125 112 155 58 87 103 84 46 68 76 32 45 117 67 65 43 355 37 49 42 26 67 113 91 120 205 288 90 308 119 109 249 177
201 207 195 198 183 51 50 56 47 53 117 96 130 140 115 121 260 33 118 149 135 94 42 50 23 22 69 81 80 145 210 221 212 108 25 67 71 115 119 134 223 235 219 143 86 286 305
198 202 195 191 190 130 45 38 47 56 112 113 125 149 98 109 297 63 151 171 125 103 109 133 167 65 49 89 101 153 247 177 189 173 170 58 22 171 168 216 284 241 235 132 135 236 219
196 194 197 188 180 168 109 63 33 59 112 106 168 60 121 111 338 26 14 110 83 110 143 189 68 332 53 83 124 218 147 236 93 161 179 172 151 203 100 94 281 178 106 179 202 167 276
188 189 194 188 181 179 167 95 44 32 116 122 105 346 63 78 141 48 88 57 41 81 129 178 169 159 177 95 204 90 254 73 143 246 122 248 193 181 176 212 247 178 130 87 117 180 329